Погода в Новочебоксарске

Россия / Чувашская Республика     56°06′34″N   47°28′44″E
темп.,
°C
ветер,
м/с
пор.,
м/с
влажн.,
%
обл.,
%
осадки,
мм/ч
давл.,
гПа
погр.,
м
28 сентября, вт
вт2800:00+3всв51186100 0.0 1023594
03:00+4св5108177 0.0 1025878
06:000св410935 0.0 1027274
09:00+4св587247 0.0 1028541
12:00+8св5753100 0.0 10281128
15:00+9св574713 0.0 10281253
18:00+4ссв366715 0.0 102993
21:00+3ссв3672100 0.0 1030126
29 сентября, ср
ср2900:00+3с347694 0.0 103172
03:00+1с338473 0.0 103144
06:000с338924 0.0 103246
09:00+5ссв346514 0.0 1032392
12:00+9ссв345090 0.0 10321106
15:00+10с444810 0.0 10311383
18:00+5с336740 0.0 103133
21:00+4ссв227983 0.0 103226
30 сентября, чт
чт3000:00+3с228177 0.0 103211
03:00+3ссз118199 0.0 103210
06:00+5зсз227498 0.0 103362
09:00+8зсз336989 0.0 1033324
12:00+9зсз346671 0.0 1032492
15:00+12зсз456071 0.0 10311140
18:00+9зсз3672100 0.0 1031149
21:00+9зсз3676100 0.0 1031157
1 октября, пт
пт100:00+9з3682100 0.1 1030148
03:00+8зсз36918 0.1 1030176
06:00+6сз35976 0.0 1031109
09:00+9ссз35775 0.0 1031377
12:00+13ссв346290 0.0 10311088
15:00+13с3362100 0.0 10311038
18:00+12с2364100 0.0 103148
21:00+9ссз117613 0.0 103210
2 октября, сб
сб200:00+7зсз118616 0.0 103210
03:00+7зсз128983 0.0 103210
06:00+6зсз229027 0.0 103311
09:00+11сз23747 0.0 1033301
12:00+14сз336315 0.0 1033833
15:00+15зсз336027 0.0 10321033
18:00+11зсз22825 0.0 103311
21:00+9зсз22905 0.0 103311